Regional Weather Roundup
Issued by NWS State College, PA

Home | Current Version | Previous Version | Text Only | Print | Product List | Glossary Off
Versions: 1 2 3 4 5 6 7 8 9 10 11 12 13 14 15 16 17 18 19 20 21 22 23 24 25 26 27 28 29 30 31 32 33 34 35 36 37 38 39 40 41 42 43 44 45 46 47 48 49 50

000
ASUS41 KCTP 060203
RWRCTP

REGIONAL WEATHER ROUNDUP
NATIONAL WEATHER SERVICE STATE COLLEGE PA
1000 PM EDT THU MAY 05 2016

Note: "fair" indicates few or no clouds below 12,000 feet with no
significant weather and/or obstructions to visibility.

* = STATION THAT DOES NOT REPORT PRECIPITATION /E.G. RAIN...SNOW...ETC/
    THUNDER OR FOG.

PAZ002>004-007>009-013>016-020>023-029>032-060300-
WESTERN PENNSYLVANIA

CITY           SKY/WX    TMP DP  RH WIND       PRES   REMARKS
ERIE           CLEAR     51  42  71 NE3       29.81R
MEADVILLE      CLEAR     49  42  77 N8        29.79R
FRANKLIN*      CLEAR     50  41  71 N6        29.80R
NEW CASTLE     FAIR      53  43  68 N7        29.79R
BEAVER COUNTY  NOT AVBL
BUTLER*        CLEAR     52  43  71 NW5       29.78S
PITTSBURGH INT PTCLDY    55  45  68 N14       29.75R
PITTSBURGH     PTCLDY    52  46  80 N10       29.73R
INDIANA*       CLOUDY    55  43  62 E5        29.77R
LATROBE        MOCLDY    54  54 100 CALM      29.73R
WASHINGTON CO* MOCLDY    48  45  87 NW5       29.76
$$

PAZ004>006-010>012-017>019-024>028-033>037-041-042-045-046-049>053-060300-
CENTRAL PENNSYLVANIA

CITY           SKY/WX    TMP DP  RH WIND       PRES   REMARKS
BRADFORD       CLEAR     49  38  65 NE8       29.77R
DUBOIS         MOCLDY    51  39  63 N9        29.75R
CLEARFIELD     CLOUDY    54  40  59 NE7       29.74R
JOHNSTOWN      CLOUDY    50  37  61 NE9       29.71R
ALTOONA        CLOUDY    52  41  66 NE12      29.72R
STATE COLLEGE  CLOUDY    53  44  71 NE5       29.72R
WILLIAMSPORT   CLOUDY    57  44  62 NW3       29.71R
SELINSGROVE    CLOUDY    55  44  66 N8        29.70R
FT INDIANTOWN  CLOUDY    56  44  65 N7        29.68R
CAPITAL CITY   CLOUDY    58  43  57 N5        29.68R
HARRISBURG     LGT RAIN  56  45  66 NW6       29.67R
YORK           LGT RAIN  52  48  86 NW3       29.68R
$$

PAZ038>040-043-044-047-048-054-055-060>062-067>071-060300-
EASTERN PENNSYLVANIA

CITY           SKY/WX    TMP DP  RH WIND       PRES   REMARKS
SCRANTON       CLOUDY    53  43  68 NE9       29.70R
MOUNT POCONO   CLOUDY    47  41  80 N8        29.68R
ALLENTOWN      CLOUDY    55  44  66 NE6       29.68R
QUAKERTOWN*    CLOUDY    54  46  76 NE6       29.69R
READING        CLOUDY    56  45  66 E8        29.67R
LANCASTER      CLOUDY    55  46  71 NE8       29.67R
COATESVILLE    CLOUDY    54  50  87 MISG      29.68R
POTTSTOWN      CLOUDY    54  45  71 N5        29.69R
BLUE BELL      CLOUDY    54  45  71 CALM      29.67R
DOYLESTOWN     CLOUDY    52  45  77 MISG      29.67R
WILLOW GROVE   NOT AVBL
NORTH PHILA    CLOUDY    57  45  64 NE15      29.68R
PHILADELPHIA   CLOUDY    57  45  64 NE5       29.67R
$$




USA.gov is the U.S. government's official web portal to all federal, state and local government web resources and services.